Retour au catalogue

STARLINK-31896

ActifCommunicationsVLEO
NORAD 59851·PAYLOAD·🇺🇸 United States

Lancé May 23, 2024 depuis Cape Canaveral Space Force Station

Loading…

Prochains Passages (prochaines 24 heures)

TLE

FraisSource: CelesTrak SupGP

Époque: Sep 14, 2026, 14:03 UTC

1 59851C 24097S   26257.58590278  .00049281  00000+0  17855-2 0  2574
2 59851  43.0000 287.5623 0001510 279.9887 172.4385 15.27543354    17

Suivez STARLINK-31896 en temps réel avec AllMySat

Download on the App Store